Find Qianfan Jigui 03-02

NORAD ID: 62239 Int'l Des: 2024-232 Owner: YUANX Country: CN Constellation: qianfan operational
LEOCIRCULARPOLAR

实时位置

正在加载3D地球...

关于 Qianfan Jigui 03-02

正在加载描述...

即将过境

Passes for default location (London). Set your location on the main map for personalized predictions.

高度历史

Loading altitude history...

两行轨道根数

1 62239U 24232C 26106.88829930 .00000140 00000-0 19796-3 0 9997
2 62239 89.0116 28.6468 0013614 185.7903 174.3093 13.51013187116129
Epoch: Apr 16, 2026 • Age: 11 hours

当前状态

高度 1061.3 km
速度 7.33 km/s
星下点 16.11°N, 129.08°W
发射日期 Dec 5, 2024
运行时间 1.3 years
类型 internet

技术详情

分类 Payload
质量 267.00 kg
干质量 267.00 kg
总质量 267.00 kg
长度 0.30 m
直径 3.00 m
跨度 10.00 m
形状 Box+pan
制造商 SECM
平台类型 Qianfan
阶段状态 In Orbit
所有者/国家 YUANX/CN

Most Searched